Theta_e
336 336 335 335 335 335 336 337 337 338 336 333 332 330 329 328 326 325 326 322 321 325 330 332 331 330 331 330 329 330 329 329 330 330 331 331 331 332 331 332 331 331 331 330 329 327 324 325 326 326 324 320 315 312 313 314 316 317 320 321 320 319 319 318 317 315 316 316 317 319 319 318 316 314 313 313 315 316 315 316 320 322 322 322 324
336 336 335 335 335 335 335 336 336 337 338 338 337 335 333 331 328 329 332 330 327 326 327 331 332 331 331 330 328 329 331 331 331 330 331 332 332 332 331 332 332 332 331 330 330 329 327 325 326 327 325 322 316 313 313 314 317 320 321 321 320 320 319 319 318 317 316 317 318 319 320 320 317 313 312 313 313 315 315 315 318 321 321 320 322
336 336 336 336 335 336 335 335 337 336 336 338 338 338 337 335 331 330 330 331 331 330 329 330 332 332 332 331 330 329 330 331 331 329 330 332 333 333 331 332 332 332 331 331 330 330 329 327 326 326 326 324 318 314 313 315 319 321 319 317 317 317 317 318 318 318 317 317 319 320 321 321 320 316 313 313 313 313 313 313 315 318 320 319 321
336 336 336 336 336 336 336 336 336 335 336 338 337 336 337 337 335 331 327 327 330 332 331 330 330 332 333 333 332 329 328 329 330 330 329 329 330 332 332 332 332 332 331 330 330 330 330 329 326 326 326 324 318 314 314 314 319 321 316 313 313 315 316 317 318 318 318 318 319 321 321 322 322 319 315 314 313 313 314 314 313 314 318 319 320
335 335 334 335 336 336 336 335 334 334 334 335 335 335 334 335 336 335 332 330 330 331 331 331 331 331 332 333 332 330 327 327 330 331 330 328 328 332 334 333 332 331 331 331 330 330 330 330 328 326 327 325 319 314 313 315 319 321 317 313 312 314 316 316 318 319 319 319 320 321 322 323 323 321 317 315 315 315 316 317 314 313 315 317 318
334 334 334 334 335 335 336 335 333 332 333 333 334 334 333 333 335 337 337 335 334 333 332 332 331 331 332 332 332 331 328 327 329 329 329 328 329 332 332 333 333 332 332 331 331 331 331 330 329 328 327 326 322 316 313 316 321 323 320 318 314 314 316 315 316 317 318 319 320 321 323 323 323 322 319 316 317 318 319 318 316 315 315 316 317
335 335 335 335 335 335 335 335 334 333 333 333 334 334 334 333 333 334 336 336 337 336 335 333 332 331 332 332 332 331 330 330 329 328 328 327 329 331 330 330 332 332 332 332 332 331 331 331 330 329 328 327 324 317 314 316 322 324 323 322 318 315 316 316 315 315 315 316 317 320 323 324 323 322 321 318 318 319 318 317 317 317 317 317 317
336 335 335 336 335 335 336 335 334 334 334 334 333 334 334 333 333 332 333 334 336 337 336 335 334 332 330 329 328 327 328 330 330 329 328 327 328 329 328 326 328 330 331 332 333 332 331 331 331 330 329 328 326 320 315 318 325 327 325 326 323 319 317 316 315 315 314 315 315 317 321 323 322 323 322 319 319 318 317 317 316 316 316 315 314
335 335 335 335 335 335 335 334 333 333 334 335 334 333 332 332 333 332 331 332 333 335 337 336 336 335 332 330 328 327 327 329 329 328 327 327 327 328 326 323 324 326 328 330 331 332 332 331 331 331 329 329 327 323 317 319 328 330 328 328 326 323 321 318 316 316 318 317 315 315 319 322 322 323 322 320 319 319 318 318 317 316 315 313 311
334 334 334 334 334 335 334 332 332 331 332 333 332 332 331 331 332 332 332 331 331 334 335 336 336 336 335 335 332 330 328 328 327 325 325 324 325 326 325 324 323 324 326 328 329 331 332 332 331 331 330 329 328 326 319 318 325 329 329 329 328 326 325 322 318 318 321 320 316 314 316 320 321 322 322 321 320 320 319 319 318 318 316 313 310
333 333 333 333 334 334 333 331 330 330 331 332 332 333 333 332 332 332 332 331 331 331 332 334 335 335 335 335 333 331 330 329 327 327 327 326 326 327 327 327 327 326 325 327 329 330 331 332 331 331 331 330 329 328 322 317 321 327 329 330 329 328 327 326 321 320 322 323 320 316 314 317 321 322 322 322 321 320 319 319 319 319 318 314 310
333 334 333 333 333 332 332 332 330 330 332 332 333 333 333 332 333 333 332 332 332 332 333 334 334 334 334 333 332 331 331 330 330 329 329 329 329 329 329 329 329 328 326 325 327 330 331 331 332 332 331 330 329 328 324 318 318 324 328 329 330 329 328 328 325 322 323 323 322 319 314 315 319 321 322 322 322 321 320 319 319 319 318 317 315
333 334 334 333 333 332 332 332 331 332 332 332 331 330 330 331 332 332 332 332 333 333 333 333 334 334 334 333 334 333 332 331 330 330 329 329 328 328 328 328 328 328 327 325 326 328 329 331 331 331 332 331 329 330 327 321 317 320 324 328 329 329 328 329 328 325 324 324 324 321 316 315 318 320 322 322 322 321 320 320 319 319 317 318 318
333 333 334 334 334 333 333 332 332 332 332 333 332 331 331 332 332 333 333 333 334 333 332 331 332 333 333 333 333 333 334 333 332 331 330 329 328 327 327 327 328 329 329 328 327 326 328 330 331 331 331 331 329 330 329 325 320 318 320 324 328 329 329 329 329 328 327 325 324 323 319 315 317 319 321 322 322 321 321 321 320 319 317 316 317
333 333 334 334 333 333 333 333 334 334 334 334 334 333 332 332 333 333 333 333 333 334 332 331 331 331 331 332 332 333 333 333 333 333 332 330 328 327 327 328 328 328 329 329 329 328 329 331 332 331 331 331 330 329 330 329 325 321 319 321 324 326 328 328 329 329 329 327 325 324 322 317 315 319 320 321 322 322 322 321 321 320 318 317 316
333 333 334 333 333 333 333 334 334 334 334 334 334 333 333 333 333 333 333 332 332 333 333 332 332 331 332 332 332 332 332 331 332 332 333 333 332 330 329 328 328 328 328 328 328 327 328 329 331 331 331 331 330 329 329 330 329 325 321 319 322 324 326 327 329 329 329 329 326 324 323 319 315 318 320 321 322 322 322 322 321 319 318 319 318
332 332 332 332 333 333 332 333 332 331 331 332 332 332 332 332 333 332 332 331 332 332 332 331 332 332 332 332 330 331 331 331 331 331 332 334 334 333 331 330 328 328 328 328 328 326 325 327 329 330 331 331 330 330 329 329 329 328 325 323 322 322 323 325 327 328 328 329 328 325 324 321 316 316 319 320 321 322 322 322 321 320 318 318 318
329 330 330 330 330 330 331 331 331 330 329 330 330 331 331 332 332 331 331 331 331 331 331 331 330 330 331 331 330 330 330 330 330 330 330 331 332 333 334 333 332 329 328 328 328 328 326 326 326 327 329 331 331 331 330 329 329 329 328 326 325 323 323 323 325 327 328 328 328 327 325 322 319 316 317 319 320 321 322 322 321 320 319 319 317
328 328 328 329 328 329 329 329 329 330 329 329 330 330 330 330 330 331 331 330 331 331 331 331 330 330 330 330 330 330 330 331 330 330 330 329 330 332 332 332 333 332 331 331 330 330 329 327 327 327 327 329 330 331 331 330 330 330 328 328 328 326 325 324 323 324 327 328 328 328 326 324 321 318 316 316 319 320 321 322 321 319 319 319 316
328 326 326 327 327 327 328 328 329 329 328 328 328 328 328 328 329 329 330 330 330 330 330 330 330 330 330 330 330 329 330 331 330 330 331 330 329 330 330 330 332 333 333 332 331 331 331 330 329 328 327 327 328 330 331 330 330 330 330 329 328 327 326 326 324 323 325 327 328 328 327 325 323 320 316 315 317 320 321 321 321 320 320 319 315
326 324 324 325 325 326 326 325 326 325 325 326 326 324 325 327 328 328 329 329 329 329 330 330 329 329 329 330 330 329 330 330 329 329 331 330 329 329 330 330 330 331 332 332 332 332 331 332 331 329 328 327 328 329 330 330 330 330 330 329 328 328 328 327 326 324 324 326 328 328 329 327 324 321 318 315 315 318 320 321 320 319 320 320 318
323 322 322 324 323 323 322 322 322 322 322 324 323 322 323 325 326 326 326 328 329 329 329 329 329 329 329 329 330 329 329 329 329 329 330 331 330 330 330 330 329 330 331 332 332 332 332 331 331 331 329 328 328 329 330 330 330 330 330 330 329 329 329 328 327 326 324 325 326 328 329 328 326 324 320 316 314 316 318 320 320 319 319 320 320
321 320 320 321 320 319 319 320 321 322 322 322 320 320 322 323 323 322 323 326 328 328 328 328 328 328 328 328 329 329 328 329 328 328 329 329 329 329 329 330 329 329 330 331 331 332 332 331 331 331 332 331 328 327 328 329 329 329 329 330 330 329 330 329 328 327 325 324 325 326 327 329 328 326 323 318 314 315 318 319 319 320 320 319 320
319 318 318 318 317 317 318 318 319 319 320 319 319 319 320 320 320 319 319 323 326 326 325 325 324 325 326 327 328 328 328 328 328 328 328 328 328 329 329 329 329 329 330 331 331 331 332 332 331 331 332 332 328 325 325 327 328 329 328 329 330 330 330 329 328 328 327 325 325 325 326 328 329 327 326 322 317 316 317 318 319 320 320 319 319
317 317 316 317 317 317 317 317 317 317 318 318 318 318 318 318 318 318 318 320 322 322 321 321 321 321 322 324 326 326 326 327 327 327 327 327 328 328 328 328 329 329 330 330 330 331 331 332 332 331 331 332 330 327 325 325 327 329 329 329 329 330 330 330 329 329 328 326 326 325 325 327 328 328 327 325 321 318 317 318 319 319 319 318 318
316 316 316 316 316 316 316 316 316 316 316 316 316 316 316 317 317 317 317 318 319 319 319 319 319 318 319 322 324 324 323 324 324 325 326 327 328 328 328 327 327 328 329 329 330 330 331 332 331 331 331 331 331 329 327 326 326 325 326 327 328 329 330 330 330 329 328 327 326 326 325 325 327 328 327 326 323 321 318 317 318 319 319 316 314
315 315 315 315 315 315 315 315 315 315 315 315 315 315 315 315 315 315 316 316 317 317 317 317 317 317 318 319 321 321 321 322 322 323 324 326 328 327 328 328 327 328 328 328 329 330 331 331 330 331 331 329 329 328 327 326 325 324 323 324 327 328 330 330 330 329 328 327 327 327 326 325 326 327 327 326 325 323 320 318 317 318 319 316 312
315 314 314 314 314 314 314 314 314 313 313 313 313 313 313 313 313 314 314 314 315 315 315 315 315 316 316 317 318 318 319 320 321 321 322 323 325 324 325 327 328 329 328 328 329 329 330 330 330 331 332 331 328 328 328 327 326 326 325 326 327 328 328 329 330 330 329 328 327 327 326 325 325 326 327 326 325 324 322 320 318 317 318 316 313
314 313 313 313 313 313 313 312 312 312 312 312 312 312 312 312 312 312 312 313 313 313 313 313 314 314 314 315 315 316 317 317 318 318 318 319 319 321 322 325 326 328 328 328 328 328 328 329 330 330 332 332 330 328 328 328 327 326 325 326 327 328 328 328 329 330 330 329 328 327 327 326 325 325 325 325 325 325 324 322 319 318 316 316 315
312 312 312 312 312 312 311 311 311 311 311 310 310 310 310 310 310 310 310 310 311 311 311 311 312 312 312 313 313 314 314 315 315 315 316 316 316 317 319 321 322 324 326 326 327 327 327 327 329 330 330 331 331 330 328 327 327 327 326 325 326 328 328 328 328 329 329 330 329 328 327 326 326 325 324 324 324 323 324 324 322 320 317 316 316
311 311 311 310 310 310 309 309 308 308 307 307 307 307 307 307 307 307 307 307 307 308 308 308 309 310 310 310 311 312 313 313 313 314 314 314 314 315 316 317 318 320 322 323 324 326 326 326 327 328 329 330 330 331 330 328 327 327 328 327 325 326 327 327 327 327 328 330 330 329 328 327 326 326 325 324 323 322 321 323 324 323 320 317 316
309 309 308 308 308 307 306 306 305 305 304 304 304 304 304 304 304 304 304 305 305 305 306 307 307 308 309 309 309 310 311 311 312 312 313 313 313 314 314 315 315 317 319 320 321 323 324 325 326 327 328 329 329 330 330 330 329 327 327 328 327 326 326 326 325 326 327 329 330 330 329 328 327 327 326 325 325 323 320 321 323 324 323 321 318
307 306 306 305 305 304 304 303 303 302 302 302 302 302 302 301 302 302 302 302 302 303 304 305 306 306 307 308 308 309 309 309 310 310 311 312 312 312 313 313 314 315 316 317 318 319 320 322 324 326 327 327 328 329 330 330 330 329 327 327 328 327 326 325 325 325 326 327 329 330 329 329 328 327 327 326 325 325 322 319 320 322 324 323 321
305 304 303 303 302 302 301 301 300 300 300 300 299 299 299 299 299 300 300 300 300 301 301 303 305 305 305 306 307 308 308 308 309 309 309 310 310 310 311 311 312 312 313 314 315 316 317 318 320 323 325 326 327 328 329 330 331 330 329 327 327 328 326 325 324 324 325 326 328 329 330 329 328 328 328 327 326 326 325 321 318 319 323 324 323
302 301 301 300 300 299 299 298 298 298 298 298 298 298 298 298 298 298 298 299 299 300 302 303 304 304 304 305 305 306 306 307 307 308 308 308 308 308 309 309 310 310 311 311 312 313 314 315 316 318 321 323 325 327 329 329 330 330 330 329 327 327 327 326 324 324 324 325 326 328 329 330 329 328 328 328 327 326 326 324 320 317 318 322 323
299 298 298 298 297 297 296 296 296 296 297 297 297 297 297 297 297 297 298 299 299 300 302 303 304 304 304 304 305 305 305 305 306 306 306 306 306 307 307 307 308 308 309 310 310 310 311 313 314 315 316 318 321 324 327 329 329 329 329 330 329 328 328 328 327 326 325 325 326 327 328 329 330 329 328 328 328 327 326 326 323 318 314 317 321
297 296 296 296 295 295 295 295 296 296 296 296 296 296 297 297 297 297 298 299 300 301 302 303 303 303 303 304 304 304 304 304 305 305 305 305 306 306 306 306 305 306 307 308 309 310 310 311 313 314 315 316 317 320 323 326 327 328 328 329 329 329 328 328 328 328 328 328 327 327 327 327 328 329 329 328 328 328 327 326 326 321 314 312 316
296 295 295 295 295 295 295 295 295 296 296 296 296 296 297 297 297 297 298 298 299 301 302 302 302 303 302 303 303 303 303 303 303 303 304 304 305 305 305 304 304 304 305 306 308 309 310 311 312 313 314 315 316 317 319 322 324 327 328 328 328 328 328 329 328 328 329 329 328 328 327 326 326 328 329 328 328 328 328 327 326 325 319 312 310
295 295 295 295 294 294 295 295 296 296 296 296 296 296 297 297 297 298 298 298 299 300 301 302 302 302 302 302 302 302 302 302 301 301 302 302 303 304 304 304 304 304 305 306 306 307 308 310 311 312 313 314 315 316 318 319 321 323 326 328 329 328 327 329 329 328 328 329 329 328 328 327 326 327 328 328 329 328 328 328 327 326 323 315 308
295 295 294 294 294 295 295 296 296 296 296 296 296 297 297 297 297 298 298 298 299 300 301 301 301 301 301 301 301 301 301 300 300 300 301 301 301 302 303 303 303 304 304 305 305 305 306 307 309 311 312 313 314 315 317 319 320 321 322 325 328 329 328 328 328 328 328 328 329 328 328 328 327 326 327 328 329 329 329 328 327 327 325 318 310
294 294 294 294 294 295 296 296 296 296 296 296 297 297 297 297 297 298 298 299 299 300 300 300 300 300 300 300 300 300 299 299 299 299 300 301 300 300 301 301 302 302 303 304 305 305 305 305 306 309 310 311 313 314 316 318 320 321 321 322 325 327 328 327 327 327 328 328 328 328 328 328 328 327 327 327 328 329 329 329 328 327 326 321 312
294 294 294 294 295 296 296 296 296 296 296 296 296 297 297 297 297 297 298 299 299 299 299 300 299 299 299 299 299 299 299 299 299 299 299 300 300 300 300 301 301 301 302 303 304 305 305 304 304 306 307 309 311 313 314 315 317 319 319 320 322 324 326 328 327 327 329 329 328 328 328 328 327 327 327 326 326 328 329 330 329 328 327 324 316
294 294 294 295 295 296 296 296 296 296 296 296 296 296 296 296 297 297 297 298 298 299 299 299 299 299 299 299 299 299 299 299 298 298 298 299 300 300 301 301 301 301 301 301 302 303 304 303 304 305 306 307 309 312 313 314 315 317 318 319 321 322 324 326 327 327 328 329 327 327 327 328 328 327 327 326 325 326 328 329 330 329 328 326 320
294 294 294 295 295 296 296 296 296 295 296 295 296 296 296 296 296 296 297 297 298 298 299 299 298 299 298 298 298 298 298 298 298 297 298 299 300 300 301 302 302 301 301 301 301 302 302 303 303 305 306 306 308 310 312 313 314 316 318 319 321 324 325 326 327 327 327 327 327 327 327 328 328 327 328 327 326 325 325 327 329 330 328 327 323
294 294 294 295 295 296 296 296 296 295 295 295 295 296 296 296 296 296 298 298 298 298 298 298 298 298 298 298 298 298 297 298 297 297 298 299 300 300 301 302 302 301 301 301 301 301 301 302 302 304 306 306 306 308 310 312 313 314 315 317 320 323 326 326 324 324 325 326 326 326 327 327 327 327 327 328 327 326 325 325 327 329 329 328 326
294 294 294 294 295 295 295 296 296 295 294 295 295 295 295 295 295 296 297 298 298 298 298 298 298 298 297 297 297 297 297 297 297 298 298 299 299 300 300 301 301 301 302 302 301 300 300 301 302 302 304 306 306 308 309 310 311 313 314 315 317 320 324 324 322 324 326 327 325 326 327 327 326 326 326 327 327 328 327 326 326 327 328 329 327
294 294 294 294 294 294 294 296 296 295 294 294 295 295 295 295 295 295 296 297 298 298 298 298 297 297 297 297 296 296 296 297 297 298 299 299 299 300 300 300 300 301 301 301 300 300 300 300 301 302 303 305 307 308 310 309 309 312 314 315 316 318 321 323 324 326 327 326 325 326 326 326 325 325 326 326 326 327 327 327 326 326 327 328 328
293 293 293 294 294 294 294 295 296 295 294 294 294 294 294 295 295 295 296 297 297 297 297 297 297 297 297 296 296 296 296 297 297 298 299 299 299 299 299 300 300 300 301 300 300 300 300 300 301 302 303 305 306 309 311 311 310 312 314 315 315 316 318 320 324 326 325 325 326 326 326 326 326 325 325 325 326 326 327 327 327 327 327 328 328
293 293 293 293 293 294 293 294 295 295 294 293 294 294 294 294 294 295 295 296 297 297 297 297 297 297 297 296 295 296 296 297 297 298 299 299 299 299 298 299 300 300 300 301 301 301 300 301 301 302 302 304 306 308 311 313 313 314 314 314 314 315 317 320 324 325 325 326 326 326 326 326 326 326 325 325 325 326 326 326 326 327 327 327 327
293 293 293 293 293 293 293 293 294 295 295 294 294 294 294 294 294 295 295 296 297 297 297 297 297 296 296 296 295 295 296 297 297 298 298 298 299 299 298 298 299 299 300 301 301 301 300 301 301 302 302 304 306 308 311 313 315 316 316 315 314 314 315 319 323 325 325 326 325 325 326 326 326 325 325 325 325 325 326 325 325 326 326 326 326
293 293 293 293 292 292 293 293 293 294 294 294 293 293 294 294 294 294 294 295 296 297 296 296 296 296 296 296 295 295 296 297 297 298 298 298 299 299 298 298 298 298 299 300 299 299 300 301 302 302 302 304 305 307 309 312 315 317 316 315 314 313 313 317 321 323 324 324 324 324 324 325 325 325 324 325 324 324 325 324 324 324 325 325 325
Wind_Speed
3 3 3 3 3 3 2 2 2 2 1 2 3 3 4 5 6 5 5 6 9 12 11 11 11 9 10 11 9 8 8 8 8 7 7 7 8 8 7 8 7 7 7 8 8 8 8 8 8 8 8 7 5 5 3 2 3 4 3 2 1 1 1 2 2 2 3 5 6 6 6 6 6 7 8 10 11 12 10 11 13 13 11 11 11
3 2 2 2 2 2 2 2 2 3 2 2 3 3 4 5 6 5 5 5 6 10 12 12 12 11 11 13 12 10 9 10 10 9 8 8 9 10 9 8 9 8 8 8 8 8 8 8 8 8 8 7 6 5 4 2 3 3 3 1 1 1 1 2 2 2 3 4 5 5 6 6 6 6 8 9 10 11 10 10 13 14 13 12 12
1 1 2 2 2 2 2 2 2 3 3 2 3 4 4 5 7 7 7 7 6 8 10 11 12 12 12 14 13 12 11 12 12 11 10 9 9 11 12 10 10 10 9 9 8 8 8 8 8 8 8 7 7 6 5 3 2 3 2 1 1 1 2 2 3 2 3 4 4 4 4 5 5 6 7 8 9 11 11 11 13 15 15 13 12
1 1 2 2 1 2 2 2 2 3 3 3 4 5 5 6 7 8 8 9 8 8 10 10 12 13 12 13 14 14 14 14 14 13 12 11 11 12 13 12 11 11 11 10 9 8 8 8 8 8 7 7 7 6 6 5 2 2 2 1 1 1 2 3 4 4 4 4 5 4 4 4 4 5 6 7 9 10 10 10 12 16 17 15 14
1 1 1 0 1 3 3 3 3 2 3 3 5 5 6 7 7 7 8 9 9 10 10 11 12 13 13 14 15 15 16 16 15 15 14 13 14 13 13 13 13 13 12 11 10 10 9 9 9 9 8 8 7 6 7 6 3 2 2 2 2 2 2 3 5 5 5 5 6 6 5 4 4 5 6 8 8 9 9 10 11 14 17 16 15
1 1 2 2 2 4 4 5 5 3 4 4 5 6 6 7 7 6 7 8 10 10 11 11 12 13 14 15 16 17 18 19 18 18 17 16 16 15 15 14 14 15 14 13 12 11 11 10 10 9 9 8 7 6 7 6 4 3 2 2 2 3 3 3 4 5 6 6 6 8 7 6 5 4 7 8 9 8 8 10 11 13 15 16 15
2 1 2 2 3 4 5 6 6 5 5 5 5 5 5 7 8 8 8 8 9 11 12 13 14 14 15 16 17 18 19 19 19 20 20 20 19 18 18 16 15 16 16 15 15 14 12 12 12 11 10 9 9 7 7 7 7 5 3 2 3 3 4 4 4 4 5 6 7 9 9 8 7 6 7 9 9 9 9 10 11 11 11 12 12
2 2 2 2 3 4 5 6 6 6 6 6 5 5 5 6 7 9 9 9 10 11 12 13 15 17 18 19 20 22 22 21 22 23 23 23 23 22 21 19 17 16 16 16 16 16 15 14 13 13 12 10 10 9 8 8 9 9 6 4 4 3 4 4 5 4 3 4 6 10 11 10 10 8 8 9 10 10 10 10 10 10 9 9 9
2 2 2 2 3 4 5 6 6 6 6 6 7 7 7 7 7 8 9 9 10 10 10 12 14 16 18 21 22 24 24 23 24 26 27 26 25 25 24 24 21 19 19 18 17 17 18 17 15 14 14 12 11 11 9 9 12 13 12 9 7 5 4 5 6 5 4 2 3 9 12 12 12 11 9 10 11 10 10 10 9 9 9 8 8
2 2 2 2 2 3 4 5 5 5 5 6 8 9 9 8 7 8 8 9 10 10 10 11 12 13 15 16 19 22 24 25 25 26 27 26 26 25 24 24 24 23 21 19 19 18 19 19 18 17 16 15 13 13 12 11 13 15 16 15 12 9 7 6 7 8 5 2 2 6 11 13 14 13 11 11 11 10 10 9 9 9 8 9 9
2 2 2 1 1 3 4 4 4 4 4 5 7 8 8 8 7 7 9 9 10 11 10 11 12 13 14 15 17 19 20 22 24 24 25 25 25 25 24 24 25 25 23 21 20 20 20 20 19 19 19 17 15 14 14 13 14 16 17 18 16 14 12 10 9 9 7 4 3 3 8 12 15 15 13 12 12 10 10 9 9 9 8 9 10
2 3 3 3 2 2 3 4 4 4 4 4 5 6 7 7 7 7 8 9 10 10 10 10 12 13 15 16 17 18 19 20 21 22 22 22 22 22 23 23 23 25 24 23 22 21 22 23 22 20 20 20 16 15 16 16 16 17 18 19 19 18 16 14 12 11 10 7 4 3 5 10 14 17 16 14 13 11 10 10 9 8 8 9 10
3 2 3 4 4 3 3 4 4 3 4 5 7 8 8 8 7 7 8 9 9 10 10 11 12 12 13 14 15 16 17 17 18 20 21 21 21 21 22 22 22 23 24 23 23 22 22 25 26 23 23 23 18 17 18 18 18 18 18 20 21 20 19 18 15 14 13 10 7 5 5 8 13 17 18 17 15 13 12 11 10 9 8 9 10
3 2 3 3 3 3 3 3 4 5 5 6 8 8 8 7 7 8 8 8 9 9 10 11 11 11 12 14 14 13 14 16 16 16 17 17 18 19 19 20 20 19 21 22 23 24 23 25 28 25 24 25 22 19 19 19 20 20 19 20 21 22 21 20 18 17 16 14 11 8 6 6 11 17 18 18 16 15 14 13 11 10 9 10 10
4 4 3 3 3 3 4 3 4 5 5 5 6 7 7 7 7 7 8 9 9 9 10 11 11 12 12 12 13 12 12 14 13 11 12 14 14 16 17 18 18 17 18 20 20 20 21 25 27 25 25 27 25 22 20 20 21 21 20 20 21 22 21 21 21 21 20 18 14 11 8 7 10 16 18 18 17 16 16 15 14 12 11 11 11
4 4 3 3 4 4 5 4 5 6 6 6 7 7 8 8 7 7 9 10 9 9 10 10 11 12 11 12 12 12 12 10 11 12 12 13 14 15 15 16 16 16 17 19 19 19 20 22 24 24 26 28 27 25 23 20 20 22 22 21 22 21 21 21 22 23 23 21 18 15 12 9 10 15 17 18 18 18 18 17 16 14 13 12 12
3 4 3 3 4 5 5 5 7 7 6 6 7 7 8 7 7 8 10 11 11 11 12 10 10 11 12 13 11 11 13 13 15 15 11 11 13 14 15 16 17 17 17 19 20 20 21 21 21 22 24 26 26 25 25 23 22 23 23 22 23 22 21 21 21 22 24 24 21 18 15 12 12 14 17 18 19 19 19 18 17 15 14 13 13
3 4 4 3 5 4 4 5 6 7 5 4 6 7 7 7 6 7 10 11 11 12 12 13 13 12 12 13 12 12 16 17 17 17 15 13 12 13 14 15 16 18 19 19 19 20 21 21 20 20 21 24 25 24 26 26 25 24 24 23 23 23 23 22 22 22 24 26 25 22 18 15 14 15 17 18 20 20 20 20 18 16 15 14 14
4 5 5 4 5 5 6 5 4 6 6 4 5 6 6 7 7 6 8 10 11 12 12 13 14 13 13 14 14 15 17 17 17 17 20 20 15 14 15 16 16 17 17 17 18 18 19 21 21 20 20 21 23 23 25 28 28 27 27 25 23 23 24 23 23 23 24 27 28 26 22 19 16 15 16 18 20 21 21 21 19 18 17 15 15
6 8 7 6 5 4 4 4 2 4 4 4 5 6 5 5 7 6 7 8 10 12 12 12 13 13 13 14 15 16 16 17 18 17 20 23 22 18 16 17 17 17 17 16 16 17 19 20 21 21 21 21 21 22 23 27 30 30 29 29 26 24 24 25 24 24 24 25 28 28 25 21 19 17 16 18 20 21 21 22 21 19 18 17 16
10 10 8 5 4 2 3 4 3 4 4 4 7 7 5 3 4 5 5 6 8 10 11 11 12 13 14 14 14 15 16 18 19 18 18 22 25 23 19 18 18 17 17 15 15 16 17 19 21 21 21 21 20 20 21 25 28 31 31 31 29 26 25 26 26 25 24 24 26 28 28 25 21 19 17 18 20 22 22 23 22 20 19 18 17
7 7 5 4 3 4 5 6 5 6 5 5 8 8 6 5 6 7 6 5 6 8 10 10 10 12 13 14 14 14 16 17 17 17 17 19 22 24 21 20 21 18 15 14 16 16 17 18 20 20 20 21 21 19 20 22 25 29 31 31 31 28 27 27 27 27 26 26 26 28 29 28 24 21 19 19 20 23 23 23 23 21 20 20 19
3 4 4 4 5 5 6 6 5 6 6 7 9 8 6 6 8 10 9 8 9 10 11 11 12 12 12 12 13 14 16 17 17 17 18 19 21 24 21 19 22 21 15 15 17 16 17 18 19 20 20 22 23 22 22 23 25 27 28 30 32 31 29 29 28 28 27 27 27 27 30 31 28 24 22 20 21 22 23 23 23 22 22 22 21
3 4 4 5 7 6 6 7 6 6 7 8 8 7 7 8 10 10 8 8 11 13 14 15 16 16 15 14 14 14 15 15 17 18 19 20 21 23 21 19 21 21 16 15 17 17 18 18 18 19 20 23 25 24 24 24 25 26 26 27 30 32 32 31 29 29 29 29 29 28 29 31 30 28 25 23 23 23 23 24 24 24 23 23 23
5 5 6 7 8 8 8 8 8 8 9 8 9 9 9 9 10 11 9 8 11 13 14 16 17 17 17 16 16 17 16 16 17 18 19 20 20 22 22 20 20 21 19 18 18 17 17 17 18 19 19 21 24 24 24 24 23 24 24 25 27 31 33 32 31 31 30 30 30 30 29 30 32 31 28 25 24 24 23 25 25 25 25 25 25
7 8 8 9 10 10 10 10 11 12 12 12 12 12 11 10 10 10 10 10 12 14 15 17 18 17 16 16 17 18 18 18 18 18 19 20 21 22 24 24 23 23 23 21 19 18 17 17 17 18 19 20 22 24 24 24 24 24 24 24 24 27 31 32 32 33 32 31 31 31 30 31 32 33 31 28 27 26 24 25 27 27 28 27 27
9 9 9 9 10 10 11 12 12 13 13 13 13 12 12 12 11 11 10 10 11 12 14 15 16 16 15 16 18 19 19 19 19 19 19 19 19 20 22 23 23 24 24 22 20 19 19 19 17 17 19 20 21 23 25 25 25 25 25 24 24 25 28 31 32 33 33 32 32 33 32 32 32 34 33 31 29 28 26 26 27 28 28 27 27
9 9 9 9 10 11 11 12 12 12 13 13 13 13 13 13 13 12 12 11 11 12 12 13 13 14 14 15 17 18 19 21 22 22 22 22 22 22 22 22 21 23 25 23 21 21 19 18 17 16 17 19 20 21 23 25 26 25 25 25 24 25 27 29 30 32 33 33 34 34 34 33 34 35 35 34 32 30 29 28 28 28 28 27 27
9 9 9 9 10 11 11 11 12 12 13 13 13 13 14 14 14 14 14 13 13 13 13 14 14 14 14 14 15 15 16 18 20 21 23 24 25 24 22 22 22 22 23 24 24 24 21 19 18 16 16 17 19 21 20 22 25 26 26 26 25 25 28 29 29 31 33 35 36 36 35 35 35 36 37 36 35 33 32 31 30 28 28 28 28
9 9 10 10 11 11 11 11 12 12 12 13 13 13 14 14 15 16 16 16 15 14 14 16 15 15 15 15 15 13 13 15 16 17 19 21 22 21 21 22 24 24 24 26 27 26 24 24 22 20 18 17 18 20 21 21 23 25 26 28 27 25 27 29 29 30 33 36 38 38 37 37 36 37 38 39 38 36 35 34 33 31 28 29 30
10 11 11 11 11 12 12 13 13 13 14 14 14 14 15 15 16 16 17 17 17 16 15 16 16 15 16 15 14 13 13 15 16 16 17 18 20 21 21 21 22 23 24 26 30 30 26 25 25 22 21 20 19 20 22 22 23 24 26 29 30 28 28 29 30 29 31 35 38 39 39 38 38 38 39 40 40 39 37 36 36 34 31 30 30
12 12 13 13 13 14 14 14 15 15 16 16 16 16 17 17 17 18 18 18 19 17 16 15 15 16 16 15 14 14 14 16 16 15 15 16 18 19 19 19 19 19 19 22 28 32 31 28 27 25 24 23 22 22 23 23 24 25 25 28 30 30 30 31 31 30 30 32 36 40 41 40 39 39 39 40 41 41 40 39 39 37 35 33 31
14 14 14 14 15 15 15 16 17 17 18 18 18 18 19 19 19 19 19 19 19 19 17 15 15 16 16 15 15 15 15 16 17 16 15 15 16 18 18 19 19 18 17 19 23 29 32 33 32 30 26 23 23 23 24 24 25 27 27 28 29 30 31 31 31 31 31 31 33 39 42 42 40 39 39 40 41 43 42 41 41 40 38 36 34
15 15 15 15 16 16 16 17 18 18 19 19 19 20 20 21 21 21 21 21 20 20 19 17 15 16 17 15 15 15 15 16 16 16 17 16 17 20 20 19 20 19 18 18 21 25 31 33 35 36 33 26 23 23 23 25 25 25 27 29 29 31 33 33 32 32 32 31 32 36 41 42 41 40 41 40 41 43 44 43 43 43 42 40 37
16 16 16 16 17 17 18 19 19 20 20 21 21 22 23 23 23 23 23 23 22 20 18 16 15 16 17 16 16 17 17 17 17 16 17 19 19 20 21 19 20 22 22 21 20 22 27 31 32 34 36 34 31 26 22 24 26 25 26 28 29 31 33 35 35 34 33 33 32 34 38 41 42 43 43 42 42 43 44 45 45 45 44 43 41
16 17 17 17 18 18 19 20 20 21 22 22 23 24 24 25 25 25 24 23 22 20 16 15 16 16 16 17 17 18 18 19 19 19 20 22 22 22 21 21 21 22 23 23 23 22 25 30 30 29 31 36 38 34 27 26 26 27 28 27 26 29 32 34 36 36 36 35 33 33 35 38 41 43 45 44 43 43 44 46 46 46 46 45 44
17 18 18 18 19 19 20 21 21 22 22 23 24 25 25 26 26 26 25 23 21 18 15 15 16 16 16 17 17 18 18 19 19 21 23 24 25 25 24 24 22 22 23 25 26 26 26 30 33 32 30 31 35 37 36 33 29 28 29 29 28 29 30 32 34 36 36 36 36 35 35 36 38 42 45 46 45 45 45 46 47 48 47 47 46
18 18 18 19 19 20 20 21 21 22 23 24 25 26 26 27 28 27 26 24 20 16 15 16 16 16 16 16 17 17 18 19 20 22 24 26 27 27 27 27 25 25 28 29 29 29 29 31 35 35 32 29 29 31 34 36 35 33 31 30 31 32 31 31 32 35 36 36 38 38 37 36 36 39 44 47 47 47 47 47 47 48 49 48 47
18 18 18 18 19 20 20 21 22 23 24 25 25 26 27 28 28 27 26 25 21 16 15 15 16 16 16 15 16 17 18 19 20 21 23 26 28 29 29 30 30 31 33 33 33 31 31 32 34 35 35 33 31 31 30 30 35 38 35 33 34 34 33 31 30 32 34 36 38 39 40 38 36 37 40 45 48 49 48 47 48 48 49 49 48
18 18 18 19 20 20 21 22 22 23 24 25 26 27 28 27 27 27 26 24 22 18 16 15 16 16 16 16 16 17 18 19 20 21 23 26 29 30 30 32 34 35 35 36 36 35 33 32 34 36 37 35 32 31 29 26 29 35 38 39 36 31 31 34 33 32 34 37 38 38 39 40 39 37 37 40 46 50 50 49 49 49 50 50 49
18 19 19 19 20 20 21 22 22 23 24 25 27 27 27 27 27 25 22 20 20 19 17 16 16 16 17 16 16 18 20 21 24 26 25 26 29 32 33 33 35 36 37 36 36 36 34 31 32 34 34 33 29 29 29 26 26 30 34 38 36 32 33 36 35 33 33 35 38 38 38 39 40 40 38 39 42 47 51 52 51 50 51 51 50
19 20 19 19 20 21 21 21 22 23 23 24 24 25 26 26 26 25 21 19 19 19 17 17 16 16 17 16 17 19 20 22 26 28 29 29 29 31 33 34 35 36 36 35 35 35 33 30 30 30 30 31 31 32 33 32 30 31 33 35 37 38 38 37 34 33 32 32 34 37 38 37 38 40 41 42 42 43 48 53 53 53 52 52 52
20 20 20 20 21 21 21 21 21 22 22 23 22 23 25 25 25 25 23 21 20 19 18 17 16 17 18 18 18 18 19 23 24 26 32 35 32 31 32 33 34 34 33 33 33 33 32 32 32 32 30 32 35 35 35 35 33 32 32 34 36 38 39 37 34 33 32 32 33 36 37 37 38 40 41 43 43 42 45 50 54 55 54 53 54
21 21 21 21 21 21 20 20 21 21 21 21 21 22 24 23 24 25 23 21 20 18 17 17 16 17 18 19 20 19 22 26 24 26 35 39 36 34 33 33 34 34 33 32 32 33 33 33 34 35 34 35 38 38 35 34 33 31 30 32 33 33 35 36 34 33 35 35 35 34 35 37 39 40 41 43 44 44 45 47 50 54 56 55 55
21 21 21 21 20 19 19 18 19 20 20 21 21 22 23 22 24 24 20 18 18 17 16 17 17 17 19 21 22 24 28 29 26 30 39 42 40 38 36 36 36 36 36 35 32 31 31 31 33 36 36 36 38 40 38 36 36 35 32 32 32 32 34 37 39 40 38 36 35 33 34 36 38 39 42 43 43 46 47 46 46 50 55 57 56
22 22 21 21 20 19 18 15 16 19 21 21 21 22 23 23 24 25 20 16 16 16 16 17 17 17 19 21 21 26 32 32 30 35 40 41 42 40 39 38 39 39 39 35 29 27 27 29 32 35 35 36 38 40 41 39 39 40 38 36 35 34 35 38 40 39 35 32 33 33 34 36 37 37 39 40 42 44 47 47 46 46 51 57 59
23 22 21 20 19 19 18 15 14 17 21 21 21 22 23 23 25 27 24 18 15 16 17 17 18 17 18 20 20 25 32 33 33 37 39 39 40 38 37 38 38 39 38 32 28 28 28 29 30 32 34 36 37 40 42 41 40 42 41 39 39 39 38 36 34 34 33 32 32 32 34 35 34 36 38 37 39 42 43 45 46 45 46 53 60
24 23 21 20 19 18 18 17 15 16 20 21 21 22 23 24 26 28 26 20 16 17 18 18 19 18 19 20 21 24 30 33 34 35 35 36 36 35 34 35 36 38 37 33 31 32 30 28 28 29 30 33 35 37 40 41 41 41 42 42 40 39 38 35 33 34 37 37 34 32 33 31 30 34 36 34 36 39 41 43 44 45 45 48 57
24 23 22 21 20 19 19 18 16 16 19 22 22 23 24 26 27 28 26 21 17 18 19 19 20 19 20 23 24 26 30 31 33 35 34 33 34 33 33 34 36 37 36 35 35 32 29 26 26 25 26 29 33 34 37 40 40 38 40 44 42 35 32 34 36 33 33 35 34 32 31 30 29 32 33 33 35 36 38 40 42 43 43 44 51
24 24 23 22 21 20 20 20 18 15 17 21 23 24 25 26 27 28 27 22 18 19 20 20 20 20 21 24 27 28 28 30 32 34 33 31 32 32 33 34 35 35 34 35 34 32 28 25 23 22 23 25 29 31 33 36 35 32 37 43 42 35 32 33 33 29 26 29 31 30 30 31 32 32 32 32 34 35 36 38 39 41 42 42 47
23 23 23 22 22 22 20 20 19 18 18 20 23 24 25 26 27 28 29 25 19 18 21 20 20 21 21 23 26 27 27 28 31 32 32 31 30 30 33 34 34 34 33 33 33 31 28 25 22 22 22 21 23 25 26 29 29 28 31 35 35 36 35 32 30 29 29 29 28 27 29 31 32 34 34 32 32 34 36 37 39 40 41 42 45
Wind_Direction
155 153 167 177 176 183 186 180 190 214 229 226 225 228 234 245 256 262 262 257 247 239 231 231 240 239 238 247 252 253 260 262 259 261 263 269 271 277 300 312 316 327 332 337 344 341 340 338 335 338 340 342 334 324 329 340 339 326 318 331 304 271 307 301 279 207 184 165 144 136 134 135 145 155 165 174 179 184 187 186 184 177 168 164 157
167 174 182 184 182 184 205 220 219 220 217 238 247 245 247 248 249 248 250 256 247 243 239 233 242 250 251 256 259 257 260 261 257 252 254 261 264 271 283 293 296 305 315 320 327 331 329 329 329 328 330 335 329 315 313 318 325 318 313 322 285 244 257 270 265 223 189 175 156 142 133 129 139 148 157 168 177 184 187 186 188 186 178 175 169
204 225 225 223 222 228 243 246 249 243 227 236 252 253 257 257 253 245 241 243 238 244 247 237 239 248 255 261 259 254 253 256 257 253 250 255 262 269 277 280 281 288 298 304 309 315 317 321 322 319 318 327 324 308 298 286 292 304 304 312 269 247 235 236 240 214 188 184 168 151 139 133 136 145 155 162 172 181 187 186 188 191 188 183 180
231 220 212 214 235 261 269 270 272 264 248 244 254 254 253 257 258 257 255 250 243 244 248 243 239 242 248 257 261 259 254 251 256 259 255 258 265 266 270 275 277 278 284 291 296 299 303 307 313 316 310 310 308 295 288 280 264 274 284 278 235 224 223 220 221 206 191 192 175 158 156 149 139 142 154 160 165 172 178 181 185 190 192 191 190
234 224 231 272 298 290 282 276 285 288 278 274 274 273 266 262 261 267 268 261 255 251 250 249 245 245 245 248 257 262 261 256 253 258 261 263 268 268 266 271 275 276 276 279 282 286 291 293 301 308 299 293 293 282 283 279 249 240 262 256 217 188 198 204 208 205 195 193 179 166 164 170 159 139 149 156 156 163 170 172 177 185 192 196 198
302 331 332 331 303 297 296 292 303 310 300 296 290 289 284 275 267 266 267 265 264 258 252 251 250 249 249 250 253 259 263 261 255 255 263 268 269 271 272 270 268 272 275 275 275 275 279 283 286 294 293 288 285 275 277 272 236 225 240 268 243 179 181 198 200 202 197 192 183 175 170 181 191 157 151 156 155 160 166 167 169 179 189 196 203
301 317 312 304 294 297 298 299 309 312 306 303 294 291 287 279 272 267 265 264 266 263 260 257 254 251 250 252 253 256 260 263 263 261 264 268 270 271 273 273 267 267 270 270 272 271 269 274 276 282 286 284 280 268 265 256 232 223 218 255 266 190 177 194 201 197 193 193 188 183 180 186 199 183 160 161 162 162 162 167 171 177 184 189 195
301 316 309 306 303 298 295 296 304 308 313 313 303 293 285 284 281 274 271 266 263 265 267 264 262 260 257 256 256 259 260 263 267 268 269 270 271 270 270 273 272 270 268 264 265 269 269 267 266 273 277 274 271 262 255 244 233 237 238 241 257 225 186 186 195 188 174 187 192 191 189 190 198 192 171 164 163 162 161 165 173 179 183 185 187
319 326 324 320 306 294 294 297 302 309 315 310 302 298 294 293 290 286 283 277 272 270 272 271 270 268 266 264 262 261 261 262 265 268 270 271 271 271 270 271 271 269 269 267 262 262 267 267 262 264 270 270 265 257 249 233 227 237 242 241 248 248 226 198 188 182 165 163 194 198 195 194 198 193 179 169 164 163 166 166 172 178 183 188 188
332 338 334 329 313 298 300 304 305 310 315 312 312 315 312 305 297 294 293 286 280 276 274 276 277 275 273 271 266 262 261 261 262 265 268 270 269 269 268 268 268 266 264 266 265 259 260 266 262 258 261 265 263 255 246 231 224 231 236 238 242 244 245 231 200 193 190 170 176 204 200 196 196 193 184 176 171 170 175 176 178 180 181 184 183
338 353 4 5 331 308 312 319 323 335 336 323 321 323 323 322 316 307 302 297 290 286 283 279 279 278 274 272 269 267 265 262 262 264 265 268 269 268 267 265 264 263 260 260 262 260 257 259 260 258 258 260 259 253 246 234 225 228 232 235 237 237 242 244 223 209 210 202 180 198 207 201 193 192 188 181 178 177 180 184 183 181 179 180 178
15 9 10 11 353 332 327 324 330 345 335 312 302 303 309 312 310 305 305 306 303 300 294 287 284 283 282 280 276 272 270 268 267 267 267 267 268 267 267 265 263 262 261 259 257 258 257 255 253 252 255 258 255 248 243 235 227 226 230 232 233 235 237 241 237 222 216 215 210 197 204 205 197 193 188 183 183 182 183 187 186 182 179 180 177
25 6 358 2 358 347 335 319 316 313 295 286 285 289 293 296 301 305 308 308 308 304 298 295 292 289 292 293 286 280 277 275 273 270 268 268 266 267 268 268 267 264 263 261 255 256 256 255 253 247 248 254 254 248 242 236 231 226 228 231 232 234 236 238 237 229 220 217 220 214 199 205 204 196 189 187 188 185 187 190 188 188 183 180 178
2 357 350 348 345 330 313 301 292 284 282 288 293 297 299 303 307 308 306 303 303 301 301 304 300 296 300 296 291 289 283 280 283 279 274 272 268 267 269 270 269 265 262 259 256 256 256 256 255 248 246 252 252 250 247 240 236 230 227 232 234 233 234 235 231 228 226 223 224 220 204 203 206 199 190 189 191 189 190 191 189 192 189 182 179
347 352 337 321 323 307 298 301 303 300 301 302 300 300 298 300 302 298 300 305 303 299 301 307 305 307 308 298 296 299 287 278 284 289 284 283 280 274 273 273 271 267 260 257 257 258 258 257 257 253 252 254 249 246 246 243 242 238 230 232 236 234 234 234 230 228 228 225 226 223 211 202 202 198 194 192 193 194 194 193 192 195 195 187 183
326 326 312 313 315 297 296 307 309 303 303 306 301 298 298 303 305 301 304 311 306 292 292 298 303 309 308 302 304 301 292 290 296 298 287 281 283 281 279 279 276 270 263 259 259 259 260 261 259 257 257 257 251 245 244 243 243 244 236 231 236 236 234 234 233 230 227 224 225 225 216 203 195 197 199 197 195 197 198 196 195 198 200 194 189
291 309 315 318 304 290 294 299 300 299 299 305 302 296 293 296 302 304 307 311 306 297 295 295 293 293 291 298 309 302 298 308 308 303 291 278 280 279 279 281 279 276 270 265 264 261 259 259 260 260 257 256 253 247 244 240 238 243 240 233 233 235 233 233 234 231 227 224 224 226 220 208 199 198 203 204 200 200 200 198 198 199 201 198 193
314 333 341 336 317 314 310 304 312 319 320 315 302 298 296 297 303 309 309 309 308 306 306 303 298 293 286 286 289 290 296 303 305 304 299 290 282 277 277 278 278 279 276 271 270 264 258 255 258 260 258 256 255 250 245 240 235 235 239 237 233 234 234 231 231 231 229 225 223 225 222 214 207 201 204 208 206 203 201 200 200 199 201 200 196
332 336 338 333 325 325 317 316 328 326 327 328 314 312 315 315 314 310 307 307 305 304 304 305 305 303 297 289 284 286 292 292 291 298 301 297 289 281 280 276 273 275 274 269 267 265 261 259 261 261 259 257 256 252 246 241 237 235 237 238 235 233 235 234 231 231 232 227 221 223 223 217 213 207 205 209 209 206 203 202 201 201 201 200 199
301 309 320 326 327 330 324 327 338 319 323 327 310 303 305 316 317 307 301 303 303 301 302 303 304 303 301 297 292 292 293 288 285 290 293 293 293 290 288 284 275 271 270 266 260 259 260 262 265 265 261 258 257 255 249 241 239 238 238 239 237 233 234 237 234 232 234 230 222 222 223 219 217 212 207 208 210 208 206 204 202 205 204 200 202
295 301 315 334 334 323 306 302 301 308 317 319 312 305 290 286 306 300 289 293 298 298 298 299 300 301 301 300 298 296 295 291 293 294 287 287 294 297 296 292 283 276 275 274 267 260 258 258 260 262 260 258 257 257 255 246 240 238 239 241 241 236 232 235 236 233 233 231 225 222 221 219 219 216 210 208 210 209 209 208 205 207 206 202 206
310 316 334 348 311 289 303 312 319 328 336 329 327 327 304 280 281 278 264 261 277 283 285 287 290 293 295 297 298 297 298 298 297 296 290 287 292 297 300 296 289 285 282 283 276 266 262 259 257 257 256 255 256 254 253 251 245 241 240 242 243 238 232 233 235 234 231 229 228 224 220 219 219 218 214 209 209 210 210 211 209 208 208 207 210
352 342 348 340 319 320 328 334 335 332 333 326 331 343 332 312 306 292 270 253 260 268 270 271 278 286 287 291 297 295 297 299 296 294 293 291 290 293 298 296 293 292 287 284 279 269 266 262 257 255 251 250 252 253 253 254 251 247 244 243 244 241 235 231 232 234 232 229 229 225 221 220 219 219 218 211 209 210 209 212 213 210 210 212 214
11 356 347 338 341 351 344 337 333 321 318 320 327 334 325 321 322 315 295 264 264 270 272 273 277 281 278 278 287 291 291 292 294 295 294 293 293 293 295 295 296 296 292 286 281 273 268 263 259 256 250 249 253 253 254 257 255 252 250 246 244 244 240 234 231 232 233 230 229 227 222 219 218 219 219 214 209 209 209 211 214 213 213 213 214
27 21 13 4 7 11 1 353 353 346 342 342 343 341 331 322 320 320 311 289 283 284 285 287 287 285 279 275 279 284 284 285 290 294 295 296 294 292 294 295 294 294 292 288 283 277 271 265 262 259 251 249 254 255 254 255 256 254 254 253 247 245 244 240 233 230 230 230 230 229 223 220 219 219 219 217 212 209 209 211 213 215 216 216 216
40 33 27 20 19 19 14 11 8 6 6 5 5 2 356 345 334 331 321 303 297 295 295 296 296 292 285 281 282 283 284 285 286 291 296 298 294 292 294 294 292 291 290 288 283 279 274 270 266 263 259 253 252 257 257 255 257 259 259 260 255 249 245 243 239 233 228 227 229 230 226 222 222 220 218 220 218 213 212 213 213 216 219 220 221
47 40 34 28 26 24 21 19 17 17 14 12 12 9 5 1 353 348 344 332 320 310 307 306 305 304 297 287 284 284 286 287 287 288 290 292 293 295 297 297 295 292 291 289 285 279 277 278 276 266 265 268 264 260 259 259 260 262 261 262 259 251 245 242 240 236 230 226 228 230 228 224 222 221 220 220 221 219 216 214 215 217 220 223 224
50 45 41 35 31 29 27 25 21 18 15 12 11 7 4 2 356 352 351 346 341 334 328 326 322 320 315 306 297 292 289 286 285 285 283 282 285 288 291 294 295 293 293 292 288 285 284 285 284 270 261 271 278 270 262 259 259 258 257 258 258 252 245 242 239 236 233 229 228 228 229 226 221 220 221 221 222 222 219 216 216 218 221 224 225
54 50 46 42 37 35 31 27 21 15 12 8 5 2 360 357 353 349 346 343 341 339 335 332 328 326 324 321 316 311 304 297 292 290 287 286 286 287 288 287 287 290 293 292 287 284 283 281 281 277 266 266 276 279 273 263 257 255 253 255 257 252 246 244 242 238 234 231 229 228 228 227 223 221 221 223 222 222 221 219 219 219 220 222 224
58 52 47 44 40 37 31 24 19 14 10 6 3 1 359 358 356 353 349 346 345 343 340 337 334 331 329 326 323 320 316 312 309 305 301 298 296 294 292 286 281 283 288 291 289 284 283 284 279 276 275 270 270 275 275 270 262 255 252 253 254 251 247 245 244 241 238 233 230 228 227 227 226 222 221 223 224 223 222 222 222 221 220 221 223
58 52 49 46 40 36 31 26 23 19 17 15 12 9 8 6 4 2 359 356 354 350 348 346 342 338 336 333 329 325 321 318 316 314 311 308 304 301 300 295 287 285 285 287 288 283 282 286 283 277 275 271 268 269 270 271 268 260 253 250 251 249 246 246 245 243 241 238 233 230 228 227 227 225 222 223 225 225 224 223 224 223 221 222 223
56 52 48 46 43 38 35 32 30 28 26 23 21 20 19 16 13 10 8 7 4 359 355 352 349 345 342 339 336 332 328 326 323 320 318 314 311 309 307 304 299 296 293 288 285 282 278 277 279 280 279 273 268 265 264 266 268 266 259 251 248 247 245 245 245 243 242 241 235 231 229 227 226 226 224 223 225 226 225 224 225 226 224 223 225
54 52 49 48 47 44 41 39 36 34 32 28 27 26 25 22 20 17 15 13 11 7 3 359 354 351 348 343 339 337 334 332 330 328 325 321 319 317 315 312 307 304 302 295 290 288 283 276 273 274 276 277 274 266 262 261 262 265 265 257 248 244 243 243 244 244 243 241 237 232 230 228 227 227 226 224 224 225 225 225 226 226 226 226 226
59 57 54 52 51 48 44 41 38 36 33 30 28 27 25 23 21 19 17 15 13 11 8 2 357 355 352 346 342 340 337 335 333 331 328 326 323 320 319 317 313 308 306 302 297 294 290 284 276 271 269 274 277 271 265 261 258 259 262 260 252 244 242 242 244 246 245 242 238 234 232 231 229 228 228 226 225 225 225 226 226 226 227 227 228
63 60 56 53 49 46 43 40 38 36 33 31 29 27 25 23 21 19 18 16 12 9 5 359 355 353 350 348 344 341 339 336 334 333 330 328 326 324 321 320 316 312 309 307 302 298 295 292 287 280 275 273 271 269 268 265 260 257 256 257 255 249 244 242 242 244 245 243 240 236 234 232 230 229 228 228 227 226 226 225 226 227 227 228 228
62 58 54 51 47 44 42 40 37 35 34 32 30 28 26 23 21 20 18 16 14 9 3 356 352 349 347 345 342 340 339 337 334 333 331 328 327 326 323 320 318 313 311 309 304 301 297 295 294 290 284 279 271 265 263 262 259 257 254 253 253 251 247 244 242 241 242 244 242 240 237 235 233 231 229 228 228 227 227 226 225 226 227 228 228
59 56 52 50 47 44 43 41 38 35 34 32 30 28 26 23 21 20 18 16 14 9 0 354 350 348 346 344 341 339 338 336 334 330 327 325 324 323 321 320 318 314 311 309 306 303 299 296 296 295 292 289 281 271 265 263 264 262 256 251 250 252 251 248 244 241 240 242 242 241 239 236 235 234 232 230 229 228 227 227 226 226 227 228 229
58 56 52 50 49 47 46 43 39 36 33 32 30 27 25 23 21 20 18 15 13 9 1 354 351 349 347 344 341 340 338 335 333 328 324 323 321 320 319 319 317 314 311 311 309 306 301 298 297 297 296 294 291 283 273 267 265 263 261 259 256 253 251 248 247 243 240 239 241 240 239 237 235 234 233 232 231 230 229 227 227 226 227 228 229
58 55 53 51 50 50 48 44 39 36 33 31 29 27 25 22 20 20 18 13 10 8 1 355 353 352 349 346 343 341 339 336 334 331 328 325 322 320 319 318 316 314 313 312 310 307 303 300 298 297 296 294 292 290 285 276 268 262 261 263 260 253 247 246 246 245 242 239 239 240 239 238 236 234 235 234 232 232 231 229 227 227 227 227 228
59 57 55 54 52 51 49 46 41 36 32 29 26 24 23 21 20 22 21 16 11 8 2 357 356 355 353 350 345 342 341 340 340 338 333 332 331 326 323 321 319 316 314 312 310 308 305 301 298 297 295 293 291 289 288 285 277 268 261 259 257 252 249 247 246 246 246 242 240 240 239 238 236 234 235 235 233 232 231 230 228 227 227 227 228
62 60 59 58 57 56 52 48 43 37 32 28 23 20 19 18 19 22 22 16 12 8 2 360 359 357 356 353 348 344 344 345 345 343 339 338 337 333 329 327 323 320 315 311 308 307 305 299 297 297 294 290 287 285 283 280 278 275 270 264 259 255 256 255 248 245 246 244 241 241 240 237 235 235 235 235 234 232 231 230 229 228 227 227 227
64 63 63 63 62 60 54 48 43 37 33 29 24 19 18 16 17 22 23 16 13 9 3 1 1 359 358 354 348 347 347 346 343 342 341 340 337 333 331 330 327 323 319 313 309 308 305 299 294 293 290 287 286 284 283 280 278 278 277 273 266 262 260 257 250 245 243 242 240 241 242 240 237 236 235 235 234 233 231 231 230 229 227 227 227
66 66 65 63 62 59 55 48 43 39 34 29 25 20 20 18 15 21 24 18 14 9 3 2 2 359 358 354 351 350 347 345 342 338 338 340 338 335 332 331 329 328 324 318 312 309 306 300 296 293 287 285 287 287 284 282 280 277 276 274 272 268 260 251 245 242 239 240 243 244 244 243 240 239 237 236 235 234 234 233 231 229 228 227 226
66 66 64 62 61 58 56 50 44 41 35 30 26 22 22 20 16 21 25 19 13 8 3 3 2 358 357 354 354 353 348 346 343 334 334 337 339 337 334 331 330 330 327 319 311 307 306 303 299 296 291 288 289 288 284 282 280 276 273 272 270 267 258 248 244 246 247 248 249 247 244 242 242 242 241 239 235 235 236 237 234 231 229 227 226
65 64 61 60 59 57 55 51 44 41 36 31 27 24 24 21 19 24 25 17 12 8 3 3 1 359 358 354 353 353 351 349 344 336 335 336 336 337 335 333 332 330 328 322 314 308 307 303 297 294 292 290 288 286 285 283 280 276 272 269 268 264 258 253 252 254 254 251 248 247 244 244 245 245 245 243 239 237 238 239 238 235 232 228 226
64 62 59 57 56 55 55 52 43 39 36 31 27 26 26 22 23 27 26 16 12 9 5 4 2 360 358 355 352 352 352 351 346 341 339 336 336 336 335 333 332 331 329 326 319 310 304 298 292 289 290 289 285 284 286 283 280 278 275 269 266 262 260 261 258 250 246 250 252 249 246 247 250 251 249 247 244 242 240 238 239 239 236 232 228
64 61 58 54 51 50 50 51 44 36 33 30 26 27 27 24 26 30 27 18 14 11 7 5 3 360 358 356 353 350 351 351 348 344 340 336 336 336 334 333 333 333 331 327 318 312 306 300 293 288 288 288 286 284 284 281 277 277 276 272 266 260 258 261 254 240 240 254 258 250 246 248 250 251 250 249 248 247 245 242 240 240 240 236 230
63 61 58 54 50 46 43 47 46 34 29 29 26 27 27 25 29 32 25 16 15 13 9 6 4 1 358 358 355 351 352 353 350 346 341 338 340 339 335 334 335 335 334 330 322 317 312 306 299 292 288 288 285 281 277 274 271 271 271 270 267 262 257 258 253 241 241 251 253 246 245 247 246 246 249 251 251 251 250 247 244 242 242 240 233
63 61 58 54 51 46 41 43 45 35 27 27 25 26 28 27 30 32 25 16 16 15 9 6 5 2 357 356 354 352 353 354 353 350 347 346 348 346 341 338 337 337 337 333 327 322 318 313 307 302 298 292 287 282 276 272 269 266 264 263 260 254 249 252 253 245 240 244 245 241 240 241 241 244 248 250 252 253 252 251 249 245 244 243 237
63 61 58 54 50 47 42 41 44 38 28 26 25 26 27 27 31 32 25 19 18 14 9 6 4 4 0 355 351 351 355 357 357 356 355 354 355 355 351 347 342 340 340 338 334 329 326 324 318 314 310 299 290 285 280 275 271 263 258 257 254 245 239 244 247 243 239 242 243 241 238 239 242 245 246 246 247 250 252 250 250 248 245 244 240
62 60 58 55 49 46 43 40 42 41 33 27 25 26 26 26 30 31 25 21 20 13 8 6 3 3 4 357 351 353 358 1 1 2 2 359 358 359 357 354 350 347 346 347 347 343 337 336 335 331 328 316 300 291 283 276 269 259 253 252 246 235 233 238 241 241 244 247 248 247 245 245 246 244 242 239 237 241 245 244 244 245 244 242 240